Time,TemperatureF,DewpointF,PressureIn,WindDirection,WindDirectionDegrees,WindSpeedMPH,WindSpeedGustMPH,Humidity,HourlyPrecipIn,Conditions,Clouds,dailyrainin,SoftwareType,DateUTC
2013-09-13 00:01:00,78.3,73.8,29.89,East,80,0.0,0.0,86,0.00,,---,0.00,VWS V14.01,2013-09-13 05:01:00,
2013-09-13 00:06:00,78.2,73.7,29.89,East,80,0.0,0.0,86,0.00,,---,0.00,VWS V14.01,2013-09-13 05:06:00,
2013-09-13 00:11:00,78.1,73.6,29.88,East,79,0.0,0.0,86,0.00,,---,0.00,VWS V14.01,2013-09-13 05:11:00,
2013-09-13 00:16:00,77.9,73.4,29.88,East,80,0.0,0.0,86,0.00,,---,0.00,VWS V14.01,2013-09-13 05:16:00,
2013-09-13 00:21:00,77.7,73.5,29.88,East,80,0.0,0.0,87,0.00,,---,0.00,VWS V14.01,2013-09-13 05:21:00,
2013-09-13 00:26:00,77.6,73.4,29.88,East,80,0.0,0.0,87,0.00,,---,0.00,VWS V14.01,2013-09-13 05:26:00,
2013-09-13 00:31:00,77.4,73.2,29.88,East,79,0.0,0.0,87,0.00,,---,0.00,VWS V14.01,2013-09-13 05:31:00,
2013-09-13 00:36:00,77.3,73.1,29.88,East,79,0.0,0.0,87,0.00,,---,0.00,VWS V14.01,2013-09-13 05:36:00,
2013-09-13 00:41:00,77.1,73.3,29.88,East,79,0.0,0.0,88,0.00,,---,0.00,VWS V14.01,2013-09-13 05:41:00,
2013-09-13 00:46:00,77.0,73.2,29.88,East,80,0.0,0.0,88,0.00,,---,0.00,VWS V14.01,2013-09-13 05:46:00,
2013-09-13 00:51:00,76.9,73.1,29.87,East,80,0.0,0.0,88,0.00,,---,0.00,VWS V14.01,2013-09-13 05:51:00,
2013-09-13 00:56:00,76.8,73.0,29.87,East,80,0.0,0.0,88,0.00,,---,0.00,VWS V14.01,2013-09-13 05:56:00,
2013-09-13 01:01:00,76.7,72.9,29.88,East,79,0.0,0.0,88,0.00,,---,0.00,VWS V14.01,2013-09-13 06:01:00,
2013-09-13 01:06:00,76.5,73.0,29.87,East,79,0.0,0.0,89,0.00,,---,0.00,VWS V14.01,2013-09-13 06:06:00,
2013-09-13 01:11:00,76.5,73.0,29.87,East,79,0.0,0.0,89,0.00,,---,0.00,VWS V14.01,2013-09-13 06:11:00,
2013-09-13 01:16:00,76.4,72.9,29.87,East,80,0.0,0.0,89,0.00,,---,0.00,VWS V14.01,2013-09-13 06:16:00,
2013-09-13 01:21:00,76.3,72.8,29.87,East,80,0.0,0.0,89,0.00,,---,0.00,VWS V14.01,2013-09-13 06:21:00,
2013-09-13 01:26:00,76.1,72.6,29.87,East,80,0.0,0.0,89,0.00,,---,0.00,VWS V14.01,2013-09-13 06:26:00,
2013-09-13 01:31:00,76.0,72.5,29.87,East,79,0.0,0.0,89,0.00,,---,0.00,VWS V14.01,2013-09-13 06:31:00,
2013-09-13 01:36:00,75.9,72.4,29.87,East,79,0.0,0.0,89,0.00,,---,0.00,VWS V14.01,2013-09-13 06:36:00,
2013-09-13 01:41:00,75.9,72.8,29.87,East,80,0.0,0.0,90,0.00,,---,0.00,VWS V14.01,2013-09-13 06:41:00,
2013-09-13 01:46:00,76.0,72.9,29.87,East,80,0.0,0.0,90,0.00,,---,0.00,VWS V14.01,2013-09-13 06:46:00,
2013-09-13 01:51:00,76.1,73.0,29.87,East,80,0.0,0.0,90,0.00,,---,0.00,VWS V14.01,2013-09-13 06:51:00,
2013-09-13 01:56:00,76.2,73.1,29.86,East,80,0.0,0.0,90,0.00,,---,0.00,VWS V14.01,2013-09-13 06:56:00,
2013-09-13 02:01:00,76.3,73.5,29.86,East,80,0.0,0.0,91,0.00,,---,0.00,VWS V14.01,2013-09-13 07:01:00,
2013-09-13 02:06:00,76.4,73.6,29.86,East,79,0.0,0.0,91,0.00,,---,0.00,VWS V14.01,2013-09-13 07:06:00,
2013-09-13 02:11:00,76.4,73.6,29.86,East,80,0.0,0.0,91,0.00,,---,0.00,VWS V14.01,2013-09-13 07:11:00,
2013-09-13 02:16:00,76.4,73.6,29.86,East,79,0.0,0.0,91,0.00,,---,0.00,VWS V14.01,2013-09-13 07:16:00,
2013-09-13 02:21:00,76.5,73.7,29.86,East,80,0.0,0.0,91,0.00,,---,0.00,VWS V14.01,2013-09-13 07:21:00,
2013-09-13 02:26:00,76.4,73.6,29.86,East,79,0.0,0.0,91,0.00,,---,0.00,VWS V14.01,2013-09-13 07:26:00,
2013-09-13 02:31:00,76.5,73.7,29.86,East,79,0.0,0.0,91,0.00,,---,0.00,VWS V14.01,2013-09-13 07:31:00,
2013-09-13 02:36:00,76.5,73.7,29.86,East,79,0.0,0.0,91,0.00,,---,0.00,VWS V14.01,2013-09-13 07:36:00,
2013-09-13 02:41:00,76.5,73.7,29.86,East,80,0.0,0.0,91,0.00,,---,0.00,VWS V14.01,2013-09-13 07:41:00,
2013-09-13 02:46:00,76.5,73.3,29.86,East,79,0.0,0.0,90,0.00,,---,0.00,VWS V14.01,2013-09-13 07:46:00,
2013-09-13 02:51:00,76.4,73.2,29.86,East,80,0.0,0.0,90,0.00,,---,0.00,VWS V14.01,2013-09-13 07:51:00,
2013-09-13 02:56:00,76.3,73.2,29.86,East,80,0.0,0.0,90,0.00,,---,0.00,VWS V14.01,2013-09-13 07:56:00,
2013-09-13 03:01:00,76.3,73.2,29.86,East,80,0.0,0.0,90,0.00,,---,0.00,VWS V14.01,2013-09-13 08:01:00,
2013-09-13 03:06:00,76.2,73.1,29.85,East,80,0.0,0.0,90,0.00,,---,0.00,VWS V14.01,2013-09-13 08:06:00,
2013-09-13 03:11:00,76.2,73.1,29.85,East,79,0.0,0.0,90,0.00,,---,0.00,VWS V14.01,2013-09-13 08:11:00,
2013-09-13 03:16:00,76.1,73.0,29.85,East,79,0.0,0.0,90,0.00,,---,0.00,VWS V14.01,2013-09-13 08:16:00,
2013-09-13 03:21:00,76.1,73.0,29.85,East,79,0.0,0.0,90,0.00,,---,0.00,VWS V14.01,2013-09-13 08:21:00,
2013-09-13 03:26:00,76.1,73.3,29.85,East,80,0.0,0.0,91,0.00,,---,0.00,VWS V14.01,2013-09-13 08:26:00,
2013-09-13 03:31:00,76.1,73.0,29.85,East,80,0.0,0.0,90,0.00,,---,0.00,VWS V14.01,2013-09-13 08:31:00,
2013-09-13 03:36:00,76.0,72.9,29.84,East,80,0.0,0.0,90,0.00,,---,0.00,VWS V14.01,2013-09-13 08:36:00,
2013-09-13 03:41:00,75.8,73.0,29.84,East,80,0.0,0.0,91,0.00,,---,0.00,VWS V14.01,2013-09-13 08:41:00,
2013-09-13 03:46:00,75.7,72.9,29.84,East,79,0.0,0.0,91,0.00,,---,0.00,VWS V14.01,2013-09-13 08:46:00,
2013-09-13 03:50:00,75.6,72.8,29.84,East,80,0.0,0.0,91,0.00,,---,0.00,VWS V14.01,2013-09-13 08:50:00,
2013-09-13 03:55:00,75.5,72.7,29.84,East,79,0.0,0.0,91,0.00,,---,0.00,VWS V14.01,2013-09-13 08:55:00,
2013-09-13 04:00:00,75.6,72.8,29.84,East,80,0.0,0.0,91,0.00,,---,0.00,VWS V14.01,2013-09-13 09:00:00,
2013-09-13 04:05:00,75.7,72.9,29.84,East,80,0.0,0.0,91,0.00,,---,0.00,VWS V14.01,2013-09-13 09:05:00,
2013-09-13 04:10:00,75.8,73.0,29.84,NNW,340,0.0,0.0,91,0.00,,---,0.00,VWS V14.01,2013-09-13 09:10:00,
2013-09-13 04:15:00,75.9,73.1,29.84,NNW,330,0.0,0.0,91,0.00,,---,0.00,VWS V14.01,2013-09-13 09:15:00,
2013-09-13 04:20:00,76.0,73.2,29.84,NNW,331,0.0,0.0,91,0.00,,---,0.00,VWS V14.01,2013-09-13 09:20:00,
2013-09-13 04:25:00,76.0,73.2,29.84,NNW,330,0.0,0.0,91,0.00,,---,0.00,VWS V14.01,2013-09-13 09:25:00,
2013-09-13 04:30:00,76.0,73.2,29.84,NNW,331,0.0,0.0,91,0.00,,---,0.00,VWS V14.01,2013-09-13 09:30:00,
2013-09-13 04:35:00,76.0,73.2,29.84,NNW,331,0.0,0.0,91,0.00,,---,0.00,VWS V14.01,2013-09-13 09:35:00,
2013-09-13 04:40:00,76.1,73.3,29.84,NNW,331,3.0,3.0,91,0.00,,---,0.00,VWS V14.01,2013-09-13 09:40:00,
2013-09-13 04:45:00,76.2,73.7,29.84,NNW,331,0.0,1.0,92,0.00,,---,0.00,VWS V14.01,2013-09-13 09:45:00,
2013-09-13 04:50:00,76.2,73.4,29.84,NNW,331,3.0,3.0,91,0.00,,---,0.00,VWS V14.01,2013-09-13 09:50:00,
2013-09-13 04:55:00,76.2,73.4,29.84,NNW,331,0.0,0.0,91,0.00,,---,0.00,VWS V14.01,2013-09-13 09:55:00,
2013-09-13 05:00:00,76.1,73.3,29.84,NNW,331,0.0,0.0,91,0.00,,---,0.00,VWS V14.01,2013-09-13 10:00:00,
2013-09-13 05:05:00,76.0,73.2,29.84,NNW,331,0.0,0.0,91,0.00,,---,0.00,VWS V14.01,2013-09-13 10:05:00,
2013-09-13 05:10:00,75.9,73.1,29.84,NNW,331,0.0,0.0,91,0.00,,---,0.00,VWS V14.01,2013-09-13 10:10:00,
2013-09-13 05:15:00,75.7,72.9,29.84,NNW,331,0.0,0.0,91,0.00,,---,0.00,VWS V14.01,2013-09-13 10:15:00,
2013-09-13 05:20:00,75.6,72.8,29.84,NNW,331,0.0,0.0,91,0.00,,---,0.00,VWS V14.01,2013-09-13 10:20:00,
2013-09-13 05:25:00,75.5,72.7,29.84,NNW,331,0.0,0.0,91,0.00,,---,0.00,VWS V14.01,2013-09-13 10:25:00,
2013-09-13 05:30:00,75.3,72.5,29.85,NNW,331,0.0,0.0,91,0.00,,---,0.00,VWS V14.01,2013-09-13 10:30:00,
2013-09-13 05:35:00,75.3,72.5,29.85,NNW,331,0.0,0.0,91,0.00,,---,0.00,VWS V14.01,2013-09-13 10:35:00,
2013-09-13 05:40:00,75.2,72.4,29.85,NNW,331,0.0,0.0,91,0.00,,---,0.00,VWS V14.01,2013-09-13 10:40:00,
2013-09-13 05:45:00,75.1,72.3,29.84,NNW,331,0.0,0.0,91,0.00,,---,0.00,VWS V14.01,2013-09-13 10:45:00,
2013-09-13 05:50:00,75.1,72.6,29.84,NNW,337,0.0,0.0,92,0.00,,---,0.00,VWS V14.01,2013-09-13 10:50:00,
2013-09-13 05:55:00,75.3,72.8,29.84,NNW,338,0.0,0.0,92,0.00,,---,0.00,VWS V14.01,2013-09-13 10:55:00,
2013-09-13 06:00:00,75.5,73.0,29.84,NNW,339,0.0,0.0,92,0.00,,---,0.00,VWS V14.01,2013-09-13 11:00:00,
2013-09-13 06:05:00,75.6,73.1,29.84,NNW,342,0.0,0.0,92,0.00,,---,0.00,VWS V14.01,2013-09-13 11:05:00,
2013-09-13 06:10:00,75.7,73.2,29.85,NNW,341,0.0,0.0,92,0.00,,---,0.00,VWS V14.01,2013-09-13 11:10:00,
2013-09-13 06:15:00,75.7,73.2,29.85,NNW,341,0.0,0.0,92,0.00,,---,0.00,VWS V14.01,2013-09-13 11:15:00,
2013-09-13 06:20:00,75.7,73.2,29.85,NNW,347,0.0,0.0,92,0.00,,---,0.00,VWS V14.01,2013-09-13 11:20:00,
2013-09-13 06:25:00,75.9,73.4,29.85,NNW,346,0.0,1.0,92,0.00,,---,0.00,VWS V14.01,2013-09-13 11:25:00,
2013-09-13 06:30:00,76.0,73.5,29.85,North,5,0.0,0.0,92,0.00,,---,0.00,VWS V14.01,2013-09-13 11:30:00,
2013-09-13 06:35:00,76.1,73.6,29.85,North,5,0.0,0.0,92,0.00,,---,0.00,VWS V14.01,2013-09-13 11:35:00,
2013-09-13 06:40:00,76.2,73.7,29.85,North,9,0.0,0.0,92,0.00,,---,0.00,VWS V14.01,2013-09-13 11:40:00,
2013-09-13 06:45:00,76.3,73.8,29.85,NNW,342,0.0,1.0,92,0.00,,---,0.00,VWS V14.01,2013-09-13 11:45:00,
2013-09-13 06:50:00,76.3,73.8,29.85,North,360,4.0,4.0,92,0.00,,---,0.00,VWS V14.01,2013-09-13 11:50:00,
2013-09-13 06:55:00,76.3,73.8,29.85,North,9,1.0,6.0,92,0.00,,---,0.00,VWS V14.01,2013-09-13 11:55:00,
2013-09-13 07:00:00,76.4,73.9,29.85,NNW,338,5.0,6.0,92,0.00,,---,0.00,VWS V14.01,2013-09-13 12:00:00,
2013-09-13 07:05:00,76.4,73.9,29.85,NNE,13,2.0,4.0,92,0.00,,---,0.00,VWS V14.01,2013-09-13 12:05:00,
2013-09-13 07:10:00,76.5,74.0,29.85,NNE,14,4.0,6.0,92,0.00,,---,0.00,VWS V14.01,2013-09-13 12:10:00,
2013-09-13 07:15:00,76.5,74.0,29.85,North,5,1.0,5.0,92,0.00,,---,0.00,VWS V14.01,2013-09-13 12:15:00,
2013-09-13 07:20:00,76.6,74.1,29.84,NNE,22,3.0,7.0,92,0.00,,---,0.00,VWS V14.01,2013-09-13 12:20:00,
2013-09-13 07:25:00,76.6,74.1,29.84,North,360,4.0,4.0,92,0.00,,---,0.00,VWS V14.01,2013-09-13 12:25:00,
2013-09-13 07:30:00,76.7,74.2,29.84,North,5,3.0,5.0,92,0.00,,---,0.00,VWS V14.01,2013-09-13 12:30:00,
2013-09-13 07:35:00,76.8,74.3,29.85,North,10,0.0,5.0,92,0.00,,---,0.00,VWS V14.01,2013-09-13 12:35:00,
2013-09-13 07:40:00,76.9,74.4,29.85,NNE,13,5.0,6.0,92,0.00,,---,0.00,VWS V14.01,2013-09-13 12:40:00,
2013-09-13 07:45:00,77.1,74.6,29.85,NNE,16,0.0,6.0,92,0.00,,---,0.00,VWS V14.01,2013-09-13 12:45:00,
2013-09-13 07:50:00,77.3,74.8,29.85,NNE,15,4.0,4.0,92,0.00,,---,0.00,VWS V14.01,2013-09-13 12:50:00,
2013-09-13 07:55:00,77.5,75.0,29.85,NNE,16,0.0,0.0,92,0.00,,---,0.00,VWS V14.01,2013-09-13 12:55:00,
2013-09-13 08:00:00,77.7,75.2,29.84,NNE,17,2.0,6.0,92,0.00,,---,0.00,VWS V14.01,2013-09-13 13:00:00,
2013-09-13 08:05:00,77.9,75.4,29.84,NNE,14,1.0,6.0,92,0.00,,---,0.00,VWS V14.01,2013-09-13 13:05:00,
2013-09-13 08:10:00,78.2,75.7,29.84,NNE,20,7.0,7.0,92,0.00,,---,0.00,VWS V14.01,2013-09-13 13:10:00,
2013-09-13 08:15:00,78.4,75.9,29.85,NNE,13,1.0,6.0,92,0.00,,---,0.00,VWS V14.01,2013-09-13 13:15:00,
2013-09-13 08:20:00,78.5,75.7,29.85,NNE,29,5.0,7.0,91,0.00,,---,0.00,VWS V14.01,2013-09-13 13:20:00,
2013-09-13 08:25:00,78.7,75.9,29.85,NNE,19,6.0,7.0,91,0.00,,---,0.00,VWS V14.01,2013-09-13 13:25:00,
2013-09-13 08:30:00,78.9,76.1,29.85,NNE,13,3.0,3.0,91,0.00,,---,0.00,VWS V14.01,2013-09-13 13:30:00,
2013-09-13 08:35:00,79.0,76.2,29.86,North,5,0.0,4.0,91,0.00,,---,0.00,VWS V14.01,2013-09-13 13:35:00,
2013-09-13 08:40:00,79.1,76.2,29.86,NNE,25,1.0,5.0,91,0.00,,---,0.00,VWS V14.01,2013-09-13 13:40:00,
2013-09-13 08:45:00,79.1,75.9,29.86,North,360,2.0,6.0,90,0.00,,---,0.00,VWS V14.01,2013-09-13 13:45:00,
2013-09-13 08:50:00,79.1,75.9,29.86,NE,46,4.0,5.0,90,0.00,,---,0.00,VWS V14.01,2013-09-13 13:50:00,
2013-09-13 08:55:00,79.2,76.0,29.86,NNE,24,10.0,10.0,90,0.00,,---,0.00,VWS V14.01,2013-09-13 13:55:00,
2013-09-13 09:00:00,79.4,76.2,29.86,NNE,29,2.0,5.0,90,0.00,,---,0.00,VWS V14.01,2013-09-13 14:00:00,
2013-09-13 09:05:00,79.6,76.4,29.86,NNE,12,4.0,8.0,90,0.00,,---,0.00,VWS V14.01,2013-09-13 14:05:00,
2013-09-13 09:10:00,79.9,76.7,29.85,NNE,19,5.0,8.0,90,0.00,,---,0.00,VWS V14.01,2013-09-13 14:10:00,
2013-09-13 09:15:00,80.6,77.4,29.86,NNE,26,7.0,10.0,90,0.00,,---,0.00,VWS V14.01,2013-09-13 14:15:00,
2013-09-13 09:20:00,81.1,77.2,29.86,NNE,19,3.0,6.0,88,0.00,,---,0.00,VWS V14.01,2013-09-13 14:20:00,
2013-09-13 09:25:00,81.5,77.3,29.86,NNE,13,5.0,8.0,87,0.00,,---,0.00,VWS V14.01,2013-09-13 14:25:00,
2013-09-13 09:29:00,82.2,77.9,29.86,ENE,75,4.0,6.0,87,0.00,,---,0.00,VWS V14.01,2013-09-13 14:29:00,
2013-09-13 09:34:00,82.6,77.3,29.86,NE,36,9.0,9.0,84,0.00,,---,0.00,VWS V14.01,2013-09-13 14:34:00,
2013-09-13 09:39:00,82.8,77.1,29.86,NNE,14,8.0,14.0,83,0.00,,---,0.00,VWS V14.01,2013-09-13 14:39:00,
2013-09-13 09:44:00,82.8,76.8,29.86,North,360,9.0,13.0,82,0.00,,---,0.00,VWS V14.01,2013-09-13 14:44:00,
2013-09-13 09:49:00,82.8,76.8,29.86,NE,34,7.0,7.0,82,0.00,,---,0.00,VWS V14.01,2013-09-13 14:49:00,
2013-09-13 09:54:00,82.9,76.8,29.86,NNE,25,4.0,5.0,82,0.00,,---,0.00,VWS V14.01,2013-09-13 14:54:00,
2013-09-13 09:59:00,82.9,76.8,29.86,NNE,22,4.0,6.0,82,0.00,,---,0.00,VWS V14.01,2013-09-13 14:59:00,
2013-09-13 10:04:00,82.9,76.8,29.86,NNE,19,4.0,8.0,82,0.00,,---,0.00,VWS V14.01,2013-09-13 15:04:00,
2013-09-13 10:09:00,82.9,76.8,29.86,NNE,17,9.0,10.0,82,0.00,,---,0.00,VWS V14.01,2013-09-13 15:09:00,
2013-09-13 10:14:00,83.0,76.9,29.86,North,360,5.0,6.0,82,0.00,,---,0.00,VWS V14.01,2013-09-13 15:14:00,
2013-09-13 10:19:00,83.0,76.9,29.86,North,9,8.0,9.0,82,0.00,,---,0.00,VWS V14.01,2013-09-13 15:19:00,
2013-09-13 10:24:00,82.9,76.8,29.86,NNE,30,3.0,5.0,82,0.00,,---,0.00,VWS V14.01,2013-09-13 15:24:00,
2013-09-13 10:29:00,82.9,77.2,29.87,NNE,18,5.0,9.0,83,0.00,,---,0.00,VWS V14.01,2013-09-13 15:29:00,
2013-09-13 10:34:00,82.9,77.2,29.87,NE,42,3.0,5.0,83,0.00,,---,0.00,VWS V14.01,2013-09-13 15:34:00,
2013-09-13 10:39:00,82.9,77.2,29.87,NNE,14,3.0,5.0,83,0.00,,---,0.00,VWS V14.01,2013-09-13 15:39:00,
2013-09-13 10:44:00,82.8,77.1,29.87,NNE,13,2.0,6.0,83,0.00,,---,0.00,VWS V14.01,2013-09-13 15:44:00,
2013-09-13 10:49:00,82.7,77.0,29.87,NNE,17,5.0,8.0,83,0.00,,---,0.00,VWS V14.01,2013-09-13 15:49:00,
2013-09-13 10:54:00,82.6,76.9,29.87,NNE,13,9.0,9.0,83,0.00,,---,0.00,VWS V14.01,2013-09-13 15:54:00,
2013-09-13 10:59:00,82.7,77.0,29.87,North,5,6.0,10.0,83,0.00,,---,0.00,VWS V14.01,2013-09-13 15:59:00,
2013-09-13 11:04:00,82.8,76.8,29.87,North,9,4.0,4.0,82,0.00,,---,0.00,VWS V14.01,2013-09-13 16:04:00,
2013-09-13 11:09:00,83.0,76.9,29.86,NNE,26,11.0,11.0,82,0.00,,---,0.00,VWS V14.01,2013-09-13 16:09:00,
2013-09-13 11:14:00,83.2,76.8,29.87,NNE,21,2.0,6.0,81,0.00,,---,0.00,VWS V14.01,2013-09-13 16:14:00,
2013-09-13 11:19:00,83.4,77.0,29.87,NNE,32,5.0,5.0,81,0.00,,---,0.00,VWS V14.01,2013-09-13 16:19:00,
2013-09-13 11:24:00,83.5,77.1,29.87,NNE,23,6.0,6.0,81,0.00,,---,0.00,VWS V14.01,2013-09-13 16:24:00,
2013-09-13 11:29:00,83.6,77.2,29.87,NNE,13,4.0,5.0,81,0.00,,---,0.00,VWS V14.01,2013-09-13 16:29:00,
2013-09-13 11:34:00,83.8,77.7,29.87,North,10,5.0,7.0,82,0.00,,---,0.00,VWS V14.01,2013-09-13 16:34:00,
2013-09-13 11:39:00,83.9,77.4,29.87,NNE,32,4.0,7.0,81,0.00,,---,0.00,VWS V14.01,2013-09-13 16:39:00,
2013-09-13 11:44:00,83.8,77.3,29.87,NE,47,1.0,1.0,81,0.00,,---,0.00,VWS V14.01,2013-09-13 16:44:00,
2013-09-13 11:49:00,83.6,77.2,29.86,ENE,72,1.0,3.0,81,0.00,,---,0.00,VWS V14.01,2013-09-13 16:49:00,
2013-09-13 11:54:00,83.6,77.2,29.86,NNE,28,0.0,0.0,81,0.00,,---,0.00,VWS V14.01,2013-09-13 16:54:00,
2013-09-13 11:59:00,83.6,77.2,29.86,NE,44,0.0,3.0,81,0.00,,---,0.00,VWS V14.01,2013-09-13 16:59:00,
2013-09-13 12:04:00,83.6,77.2,29.87,East,88,2.0,2.0,81,0.00,,---,0.00,VWS V14.01,2013-09-13 17:04:00,
2013-09-13 12:09:00,83.7,77.6,29.86,East,84,0.0,0.0,82,0.00,,---,0.00,VWS V14.01,2013-09-13 17:09:00,
2013-09-13 12:14:00,83.8,77.7,29.86,NNE,23,1.0,4.0,82,0.00,,---,0.00,VWS V14.01,2013-09-13 17:14:00,
2013-09-13 12:19:00,83.7,76.9,29.85,ENE,63,0.0,0.0,80,0.00,,---,0.00,VWS V14.01,2013-09-13 17:19:00,
2013-09-13 12:24:00,83.8,76.2,29.85,North,11,1.0,4.0,78,0.00,,---,0.00,VWS V14.01,2013-09-13 17:24:00,
2013-09-13 12:29:00,84.0,76.4,29.85,ENE,68,7.0,7.0,78,0.00,,---,0.00,VWS V14.01,2013-09-13 17:29:00,
2013-09-13 12:34:00,84.0,76.0,29.85,NE,50,4.0,4.0,77,0.00,,---,0.00,VWS V14.01,2013-09-13 17:34:00,
2013-09-13 12:39:00,84.1,76.1,29.85,NNE,12,6.0,6.0,77,0.00,,---,0.00,VWS V14.01,2013-09-13 17:39:00,
2013-09-13 12:44:00,84.2,76.6,29.84,ENE,70,1.0,3.0,78,0.00,,---,0.00,VWS V14.01,2013-09-13 17:44:00,
2013-09-13 12:49:00,84.3,76.7,29.85,NE,56,0.0,3.0,78,0.00,,---,0.00,VWS V14.01,2013-09-13 17:49:00,
2013-09-13 12:54:00,84.4,76.8,29.84,East,85,5.0,5.0,78,0.00,,---,0.00,VWS V14.01,2013-09-13 17:54:00,
2013-09-13 12:59:00,84.5,76.9,29.84,ENE,61,3.0,3.0,78,0.00,,---,0.00,VWS V14.01,2013-09-13 17:59:00,
2013-09-13 13:04:00,84.6,77.0,29.84,ENE,65,6.0,11.0,78,0.00,,---,0.00,VWS V14.01,2013-09-13 18:04:00,
2013-09-13 13:09:00,84.7,76.7,29.84,NE,51,4.0,7.0,77,0.00,,---,0.00,VWS V14.01,2013-09-13 18:09:00,
2013-09-13 13:14:00,84.7,76.7,29.84,NNE,33,6.0,9.0,77,0.00,,---,0.00,VWS V14.01,2013-09-13 18:14:00,
2013-09-13 13:19:00,84.8,76.8,29.84,ENE,69,2.0,7.0,77,0.00,,---,0.00,VWS V14.01,2013-09-13 18:19:00,
2013-09-13 13:24:00,85.0,77.0,29.83,NNE,20,2.0,10.0,77,0.00,,---,0.00,VWS V14.01,2013-09-13 18:24:00,
2013-09-13 13:29:00,85.4,77.0,29.83,NE,46,3.0,7.0,76,0.00,,---,0.00,VWS V14.01,2013-09-13 18:29:00,
2013-09-13 13:34:00,85.6,77.2,29.83,NNE,30,2.0,7.0,76,0.00,,---,0.00,VWS V14.01,2013-09-13 18:34:00,
2013-09-13 13:39:00,86.0,77.2,29.83,NE,53,8.0,10.0,75,0.00,,---,0.00,VWS V14.01,2013-09-13 18:39:00,
2013-09-13 13:44:00,86.1,77.2,29.83,East,86,5.0,6.0,75,0.00,,---,0.00,VWS V14.01,2013-09-13 18:44:00,
2013-09-13 13:49:00,86.3,77.4,29.82,NNE,24,7.0,7.0,75,0.00,,---,0.00,VWS V14.01,2013-09-13 18:49:00,
2013-09-13 13:54:00,86.5,77.6,29.82,ENE,63,3.0,6.0,75,0.00,,---,0.00,VWS V14.01,2013-09-13 18:54:00,
2013-09-13 13:59:00,87.2,78.3,29.81,East,90,0.0,9.0,75,0.00,,---,0.00,VWS V14.01,2013-09-13 18:59:00,
2013-09-13 14:04:00,87.7,77.6,29.81,NE,53,6.0,9.0,72,0.00,,---,0.00,VWS V14.01,2013-09-13 19:04:00,
2013-09-13 14:09:00,88.1,78.4,29.81,East,84,2.0,5.0,73,0.00,,---,0.00,VWS V14.01,2013-09-13 19:09:00,
2013-09-13 14:14:00,88.1,77.5,29.81,NNE,18,12.0,12.0,71,0.00,,---,0.00,VWS V14.01,2013-09-13 19:14:00,
2013-09-13 14:19:00,87.7,77.1,29.80,NE,49,10.0,10.0,71,0.00,,---,0.00,VWS V14.01,2013-09-13 19:19:00,
2013-09-13 14:24:00,87.0,76.9,29.80,East,88,2.0,6.0,72,0.00,,---,0.00,VWS V14.01,2013-09-13 19:24:00,
2013-09-13 14:29:00,86.5,77.2,29.80,ENE,71,9.0,10.0,74,0.00,,---,0.00,VWS V14.01,2013-09-13 19:29:00,
2013-09-13 14:34:00,86.4,77.1,29.80,North,5,3.0,5.0,74,0.00,,---,0.00,VWS V14.01,2013-09-13 19:34:00,
2013-09-13 14:39:00,86.8,77.5,29.80,NE,38,4.0,8.0,74,0.00,,---,0.00,VWS V14.01,2013-09-13 19:39:00,
2013-09-13 14:44:00,87.3,77.6,29.80,East,84,7.0,7.0,73,0.00,,---,0.00,VWS V14.01,2013-09-13 19:44:00,
2013-09-13 14:49:00,87.5,77.8,29.80,East,84,4.0,11.0,73,0.00,,---,0.00,VWS V14.01,2013-09-13 19:49:00,
2013-09-13 14:54:00,87.7,77.6,29.80,NNE,32,0.0,10.0,72,0.00,,---,0.00,VWS V14.01,2013-09-13 19:54:00,
2013-09-13 14:59:00,87.9,77.3,29.79,ENE,74,2.0,10.0,71,0.00,,---,0.00,VWS V14.01,2013-09-13 19:59:00,
2013-09-13 15:04:00,88.2,78.0,29.79,NE,34,10.0,10.0,72,0.00,,---,0.00,VWS V14.01,2013-09-13 20:04:00,
2013-09-13 15:09:00,88.5,77.9,29.79,ENE,72,1.0,11.0,71,0.00,,---,0.00,VWS V14.01,2013-09-13 20:09:00,
2013-09-13 15:14:00,88.2,77.2,29.79,SE,125,0.0,5.0,70,0.00,,---,0.00,VWS V14.01,2013-09-13 20:14:00,
2013-09-13 15:19:00,88.3,77.3,29.79,NNE,23,7.0,7.0,70,0.00,,---,0.00,VWS V14.01,2013-09-13 20:19:00,
2013-09-13 15:24:00,88.3,77.3,29.78,ENE,59,9.0,9.0,70,0.00,,---,0.00,VWS V14.01,2013-09-13 20:24:00,
2013-09-13 15:28:00,88.1,77.1,29.78,East,87,4.0,9.0,70,0.00,,---,0.00,VWS V14.01,2013-09-13 20:28:00,
2013-09-13 15:33:00,87.9,76.9,29.78,North,360,1.0,8.0,70,0.00,,---,0.00,VWS V14.01,2013-09-13 20:33:00,
2013-09-13 15:38:00,88.1,76.2,29.78,ENE,74,4.0,6.0,68,0.00,,---,0.00,VWS V14.01,2013-09-13 20:38:00,
2013-09-13 15:43:00,88.3,76.8,29.78,East,89,7.0,10.0,69,0.00,,---,0.00,VWS V14.01,2013-09-13 20:43:00,
2013-09-13 15:48:00,88.4,77.4,29.78,NE,52,5.0,9.0,70,0.00,,---,0.00,VWS V14.01,2013-09-13 20:48:00,
2013-09-13 15:53:00,88.6,78.0,29.78,East,90,5.0,10.0,71,0.00,,---,0.00,VWS V14.01,2013-09-13 20:53:00,
2013-09-13 15:58:00,88.5,77.0,29.78,ENE,68,8.0,15.0,69,0.00,,---,0.00,VWS V14.01,2013-09-13 20:58:00,
2013-09-13 16:03:00,88.4,77.4,29.77,ENE,68,4.0,12.0,70,0.00,,---,0.00,VWS V14.01,2013-09-13 21:03:00,
2013-09-13 16:08:00,88.4,77.4,29.77,NE,49,3.0,9.0,70,0.00,,---,0.00,VWS V14.01,2013-09-13 21:08:00,
2013-09-13 16:13:00,88.4,76.9,29.78,NNE,30,1.0,3.0,69,0.00,,---,0.00,VWS V14.01,2013-09-13 21:13:00,
2013-09-13 16:18:00,88.0,77.0,29.77,ENE,65,2.0,11.0,70,0.00,,---,0.00,VWS V14.01,2013-09-13 21:18:00,
2013-09-13 16:23:00,87.4,76.4,29.77,NE,44,4.0,8.0,70,0.00,,---,0.00,VWS V14.01,2013-09-13 21:23:00,
2013-09-13 16:28:00,86.9,76.4,29.77,NE,51,9.0,12.0,71,0.00,,---,0.00,VWS V14.01,2013-09-13 21:28:00,
2013-09-13 16:33:00,86.6,75.7,29.77,NNW,327,4.0,4.0,70,0.00,,---,0.00,VWS V14.01,2013-09-13 21:33:00,
2013-09-13 16:38:00,86.8,76.3,29.77,NNE,24,2.0,2.0,71,0.00,,---,0.00,VWS V14.01,2013-09-13 21:38:00,
2013-09-13 16:43:00,86.8,75.8,29.77,ESE,121,4.0,7.0,70,0.00,,---,0.00,VWS V14.01,2013-09-13 21:43:00,
2013-09-13 16:48:00,86.6,74.8,29.77,ENE,67,11.0,11.0,68,0.00,,---,0.00,VWS V14.01,2013-09-13 21:48:00,
2013-09-13 16:53:00,86.4,75.0,29.77,East,80,0.0,1.0,69,0.00,,---,0.00,VWS V14.01,2013-09-13 21:53:00,
2013-09-13 16:58:00,86.4,75.5,29.77,NE,41,3.0,3.0,70,0.00,,---,0.00,VWS V14.01,2013-09-13 21:58:00,
2013-09-13 17:03:00,86.5,75.6,29.78,NE,55,3.0,7.0,70,0.00,,---,0.00,VWS V14.01,2013-09-13 22:03:00,
2013-09-13 17:08:00,86.7,75.8,29.78,ENE,68,5.0,6.0,70,0.00,,---,0.00,VWS V14.01,2013-09-13 22:08:00,
2013-09-13 17:13:00,86.9,75.5,29.78,East,96,2.0,2.0,69,0.00,,---,0.00,VWS V14.01,2013-09-13 22:13:00,
2013-09-13 17:18:00,87.1,75.7,29.78,ENE,63,3.0,4.0,69,0.00,,---,0.00,VWS V14.01,2013-09-13 22:18:00,
2013-09-13 17:23:00,87.1,75.3,29.78,ENE,57,8.0,14.0,68,0.00,,---,0.00,VWS V14.01,2013-09-13 22:23:00,
2013-09-13 17:28:00,87.0,75.2,29.78,NE,55,3.0,7.0,68,0.00,,---,0.00,VWS V14.01,2013-09-13 22:28:00,
2013-09-13 17:33:00,86.9,75.5,29.78,ENE,74,4.0,4.0,69,0.00,,---,0.00,VWS V14.01,2013-09-13 22:33:00,
2013-09-13 17:38:00,87.0,76.0,29.77,ENE,71,0.0,3.0,70,0.00,,---,0.00,VWS V14.01,2013-09-13 22:38:00,
2013-09-13 17:43:00,87.3,75.9,29.77,NNE,30,7.0,12.0,69,0.00,,---,0.00,VWS V14.01,2013-09-13 22:43:00,
2013-09-13 17:48:00,87.6,76.6,29.77,East,95,2.0,5.0,70,0.00,,---,0.00,VWS V14.01,2013-09-13 22:48:00,
2013-09-13 17:53:00,87.8,76.4,29.77,ESE,105,9.0,9.0,69,0.00,,---,0.00,VWS V14.01,2013-09-13 22:53:00,
2013-09-13 17:58:00,87.8,76.4,29.76,NNE,33,4.0,5.0,69,0.00,,---,0.00,VWS V14.01,2013-09-13 22:58:00,
2013-09-13 18:03:00,87.4,76.0,29.76,East,91,4.0,4.0,69,0.00,,---,0.00,VWS V14.01,2013-09-13 23:03:00,
2013-09-13 18:08:00,87.1,75.7,29.76,NNE,27,1.0,1.0,69,0.00,,---,0.00,VWS V14.01,2013-09-13 23:08:00,
2013-09-13 18:13:00,87.1,75.7,29.76,North,360,2.0,10.0,69,0.00,,---,0.00,VWS V14.01,2013-09-13 23:13:00,
2013-09-13 18:18:00,87.0,75.6,29.76,ENE,63,0.0,0.0,69,0.00,,---,0.00,VWS V14.01,2013-09-13 23:18:00,
2013-09-13 18:23:00,87.0,75.6,29.76,East,80,0.0,5.0,69,0.00,,---,0.00,VWS V14.01,2013-09-13 23:23:00,
2013-09-13 18:28:00,86.8,75.4,29.76,NNE,15,10.0,11.0,69,0.00,,---,0.00,VWS V14.01,2013-09-13 23:28:00,
2013-09-13 18:33:00,86.5,75.1,29.76,NE,37,0.0,6.0,69,0.00,,---,0.00,VWS V14.01,2013-09-13 23:33:00,
2013-09-13 18:38:00,86.3,74.5,29.76,ENE,61,0.0,11.0,68,0.00,,---,0.00,VWS V14.01,2013-09-13 23:38:00,
2013-09-13 18:43:00,86.0,75.1,29.77,NE,54,1.0,4.0,70,0.00,,---,0.00,VWS V14.01,2013-09-13 23:43:00,
2013-09-13 18:48:00,85.7,75.2,29.77,East,100,5.0,11.0,71,0.00,,---,0.00,VWS V14.01,2013-09-13 23:48:00,
2013-09-13 18:53:00,85.4,74.5,29.77,ENE,67,9.0,11.0,70,0.00,,---,0.00,VWS V14.01,2013-09-13 23:53:00,
2013-09-13 18:58:00,85.3,74.8,29.77,East,86,4.0,5.0,71,0.00,,---,0.00,VWS V14.01,2013-09-13 23:58:00,
2013-09-13 19:03:00,85.2,75.2,29.77,ESE,105,5.0,5.0,72,0.00,,---,0.00,VWS V14.01,2013-09-14 00:03:00,
2013-09-13 19:08:00,85.0,75.0,29.77,East,87,3.0,6.0,72,0.00,,---,0.00,VWS V14.01,2013-09-14 00:08:00,
2013-09-13 19:13:00,84.7,75.1,29.77,NE,50,4.0,8.0,73,0.00,,---,0.00,VWS V14.01,2013-09-14 00:13:00,
2013-09-13 19:18:00,84.5,74.9,29.77,NE,49,2.0,5.0,73,0.00,,---,0.00,VWS V14.01,2013-09-14 00:18:00,
2013-09-13 19:23:00,84.2,74.6,29.77,East,79,2.0,6.0,73,0.00,,---,0.00,VWS V14.01,2013-09-14 00:23:00,
2013-09-13 19:28:00,84.0,74.8,29.77,ESE,105,2.0,5.0,74,0.00,,---,0.00,VWS V14.01,2013-09-14 00:28:00,
2013-09-13 19:33:00,83.8,75.0,29.77,ENE,64,0.0,4.0,75,0.00,,---,0.00,VWS V14.01,2013-09-14 00:33:00,
2013-09-13 19:38:00,83.5,74.8,29.77,ENE,74,0.0,5.0,75,0.00,,---,0.00,VWS V14.01,2013-09-14 00:38:00,
2013-09-13 19:43:00,83.3,74.9,29.77,East,80,2.0,5.0,76,0.00,,---,0.00,VWS V14.01,2013-09-14 00:43:00,
2013-09-13 19:48:00,83.0,75.1,29.77,NNE,19,0.0,2.0,77,0.00,,---,0.00,VWS V14.01,2013-09-14 00:48:00,
2013-09-13 19:53:00,82.8,74.9,29.77,ENE,63,0.0,4.0,77,0.00,,---,0.00,VWS V14.01,2013-09-14 00:53:00,
2013-09-13 19:58:00,82.6,74.7,29.77,ESE,117,0.0,3.0,77,0.00,,---,0.00,VWS V14.01,2013-09-14 00:58:00,
2013-09-13 20:03:00,82.4,74.9,29.77,East,92,2.0,3.0,78,0.00,,---,0.00,VWS V14.01,2013-09-14 01:03:00,
2013-09-13 20:08:00,82.2,74.7,29.77,ENE,65,1.0,4.0,78,0.00,,---,0.00,VWS V14.01,2013-09-14 01:08:00,
2013-09-13 20:13:00,82.1,74.6,29.78,East,99,0.0,1.0,78,0.00,,---,0.00,VWS V14.01,2013-09-14 01:13:00,
2013-09-13 20:18:00,82.0,74.5,29.78,ENE,74,2.0,3.0,78,0.00,,---,0.00,VWS V14.01,2013-09-14 01:18:00,
2013-09-13 20:23:00,82.0,74.8,29.78,East,95,4.0,6.0,79,0.00,,---,0.00,VWS V14.01,2013-09-14 01:23:00,
2013-09-13 20:28:00,82.0,74.8,29.78,East,98,3.0,5.0,79,0.00,,---,0.00,VWS V14.01,2013-09-14 01:28:00,
2013-09-13 20:33:00,81.9,74.8,29.78,East,79,3.0,4.0,79,0.00,,---,0.00,VWS V14.01,2013-09-14 01:33:00,
2013-09-13 20:38:00,81.9,74.8,29.78,East,84,3.0,3.0,79,0.00,,---,0.00,VWS V14.01,2013-09-14 01:38:00,
2013-09-13 20:43:00,81.8,74.7,29.78,ENE,60,1.0,3.0,79,0.00,,---,0.00,VWS V14.01,2013-09-14 01:43:00,
2013-09-13 20:48:00,81.8,74.7,29.78,East,86,1.0,2.0,79,0.00,,---,0.00,VWS V14.01,2013-09-14 01:48:00,
2013-09-13 20:53:00,81.6,74.5,29.78,ENE,68,0.0,2.0,79,0.00,,---,0.00,VWS V14.01,2013-09-14 01:53:00,
2013-09-13 20:58:00,81.5,74.4,29.79,ENE,67,0.0,3.0,79,0.00,,---,0.00,VWS V14.01,2013-09-14 01:58:00,
2013-09-13 21:03:00,81.4,74.6,29.79,ENE,76,0.0,1.0,80,0.00,,---,0.00,VWS V14.01,2013-09-14 02:03:00,
2013-09-13 21:08:00,81.4,74.6,29.79,East,85,3.0,5.0,80,0.00,,---,0.00,VWS V14.01,2013-09-14 02:08:00,
2013-09-13 21:13:00,81.3,74.5,29.79,ENE,69,0.0,1.0,80,0.00,,---,0.00,VWS V14.01,2013-09-14 02:13:00,
2013-09-13 21:17:00,81.3,74.5,29.79,East,80,0.0,3.0,80,0.00,,---,0.00,VWS V14.01,2013-09-14 02:17:00,
2013-09-13 21:22:00,81.2,74.4,29.79,ENE,76,0.0,0.0,80,0.00,,---,0.00,VWS V14.01,2013-09-14 02:22:00,
2013-09-13 21:27:00,81.2,74.8,29.79,ENE,69,0.0,1.0,81,0.00,,---,0.00,VWS V14.01,2013-09-14 02:27:00,
2013-09-13 21:32:00,81.2,74.8,29.79,ESE,107,6.0,6.0,81,0.00,,---,0.00,VWS V14.01,2013-09-14 02:32:00,
2013-09-13 21:37:00,81.3,74.9,29.80,East,92,4.0,4.0,81,0.00,,---,0.00,VWS V14.01,2013-09-14 02:37:00,
2013-09-13 21:42:00,81.4,75.0,29.80,East,95,0.0,1.0,81,0.00,,---,0.00,VWS V14.01,2013-09-14 02:42:00,
2013-09-13 21:47:00,81.4,75.0,29.80,East,98,4.0,4.0,81,0.00,,---,0.00,VWS V14.01,2013-09-14 02:47:00,
2013-09-13 21:52:00,81.3,74.9,29.80,East,91,4.0,4.0,81,0.00,,---,0.00,VWS V14.01,2013-09-14 02:52:00,
2013-09-13 21:57:00,81.3,74.9,29.80,East,94,0.0,3.0,81,0.00,,---,0.00,VWS V14.01,2013-09-14 02:57:00,
2013-09-13 22:02:00,81.2,74.8,29.80,East,82,0.0,0.0,81,0.00,,---,0.00,VWS V14.01,2013-09-14 03:02:00,
2013-09-13 22:07:00,81.1,75.1,29.80,NNE,32,0.0,4.0,82,0.00,,---,0.00,VWS V14.01,2013-09-14 03:07:00,
2013-09-13 22:12:00,81.0,75.0,29.80,NE,56,3.0,3.0,82,0.00,,---,0.00,VWS V14.01,2013-09-14 03:12:00,
2013-09-13 22:17:00,81.0,75.0,29.80,ESE,106,0.0,3.0,82,0.00,,---,0.00,VWS V14.01,2013-09-14 03:17:00,
2013-09-13 22:22:00,81.0,75.3,29.80,East,92,0.0,2.0,83,0.00,,---,0.00,VWS V14.01,2013-09-14 03:22:00,
2013-09-13 22:27:00,81.0,75.3,29.80,East,84,0.0,0.0,83,0.00,,---,0.00,VWS V14.01,2013-09-14 03:27:00,
2013-09-13 22:32:00,80.9,75.3,29.80,ESE,110,0.0,0.0,83,0.00,,---,0.00,VWS V14.01,2013-09-14 03:32:00,
2013-09-13 22:37:00,80.9,75.3,29.80,ESE,104,0.0,2.0,83,0.00,,---,0.00,VWS V14.01,2013-09-14 03:37:00,
2013-09-13 22:42:00,80.9,75.3,29.80,East,90,0.0,3.0,83,0.00,,---,0.00,VWS V14.01,2013-09-14 03:42:00,
2013-09-13 22:47:00,80.9,75.6,29.80,East,94,0.0,0.0,84,0.00,,---,0.00,VWS V14.01,2013-09-14 03:47:00,
2013-09-13 22:52:00,80.8,75.5,29.80,East,82,0.0,0.0,84,0.00,,---,0.00,VWS V14.01,2013-09-14 03:52:00,
2013-09-13 22:57:00,80.7,75.4,29.80,ESE,106,0.0,0.0,84,0.00,,---,0.00,VWS V14.01,2013-09-14 03:57:00,
2013-09-13 23:01:00,80.7,75.4,29.80,ESE,110,0.0,0.0,84,0.00,,---,0.00,VWS V14.01,2013-09-14 04:01:00,
2013-09-13 23:06:00,80.6,75.3,29.80,East,96,0.0,0.0,84,0.00,,---,0.00,VWS V14.01,2013-09-14 04:06:00,
2013-09-13 23:11:00,80.5,75.2,29.80,East,92,0.0,0.0,84,0.00,,---,0.00,VWS V14.01,2013-09-14 04:11:00,
2013-09-13 23:16:00,80.3,75.0,29.80,East,87,0.0,0.0,84,0.00,,---,0.00,VWS V14.01,2013-09-14 04:16:00,
2013-09-13 23:21:00,80.3,75.0,29.80,East,84,0.0,0.0,84,0.00,,---,0.00,VWS V14.01,2013-09-14 04:21:00,
2013-09-13 23:26:00,80.2,75.3,29.79,East,98,0.0,0.0,85,0.00,,---,0.00,VWS V14.01,2013-09-14 04:26:00,
2013-09-13 23:31:00,80.3,75.4,29.80,ESE,104,0.0,2.0,85,0.00,,---,0.00,VWS V14.01,2013-09-14 04:31:00,
2013-09-13 23:36:00,80.3,75.4,29.80,East,83,0.0,1.0,85,0.00,,---,0.00,VWS V14.01,2013-09-14 04:36:00,
2013-09-13 23:41:00,80.4,75.5,29.80,ENE,78,0.0,0.0,85,0.00,,---,0.00,VWS V14.01,2013-09-14 04:41:00,
2013-09-13 23:46:00,80.4,75.5,29.80,ENE,78,0.0,0.0,85,0.00,,---,0.00,VWS V14.01,2013-09-14 04:46:00,
2013-09-13 23:51:00,80.3,75.0,29.80,ENE,76,0.0,0.0,84,0.00,,---,0.00,VWS V14.01,2013-09-14 04:51:00,
2013-09-13 23:56:00,80.2,74.9,29.79,ENE,76,0.0,0.0,84,0.00,,---,0.00,VWS V14.01,2013-09-14 04:56:00,